^^
Saratoga-Weather Station Historical Data
Daily Summary for March 12, 2020 Units:  English    Metric   Both
Daily Weekly Monthly Yearly Custom
  High: Low: Average:
Temperature: 57.6 °F 36.1 °F 46.8 °F
Dew Point: 39.7 °F 31.3 °F 35.8 °F
Humidity: 95% 45% 68%
Wind Speed: 8.1mph 0mph 1.6mph
Wind Gust: 9mph - -
Wind- - South
Pressure: 30.1 in 29.9 in -
Precipitation: 0.01 in    
Historical Graphs
 
 
Tabular Data for March 12, 2020
Time Temperature Dew Point Pressure Wind Wind Speed Wind Gust Humidity Rainfall Rate (Hourly) solar
00:02 39.7 °F 38.5 °F 30 in Calm     95% 0 in 0 W/m2
00:07 39.7 °F 38.5 °F 30 in Calm     95% 0 in 0 W/m2
00:12 39.6 °F 38.3 °F 30 in Calm     95% 0 in 0 W/m2
00:17 39.4 °F 38.1 °F 30 in Calm     95% 0 in 0 W/m2
00:22 39.4 °F 38.1 °F 30 in Calm     95% 0 in 0 W/m2
00:27 39 °F 37.8 °F 30 in Calm     95% 0 in 0 W/m2
00:32 38.8 °F 37.6 °F 30 in WSW 0.9 mph 2 mph 95% 0 in 0 W/m2
00:37 38.7 °F 37.4 °F 30 in WSW 0.9 mph 2 mph 95% 0 in 0 W/m2
00:42 38.5 °F 37.2 °F 30 in Calm   2 mph 95% 0 in 0 W/m2
00:47 38.5 °F 37.2 °F 30 in Calm   2 mph 95% 0 in 0 W/m2
00:52 38.1 °F 36.9 °F 30 in WSW 2 mph 2 mph 95% 0 in 0 W/m2
00:57 37.9 °F 36.7 °F 30 in Calm   1 mph 95% 0 in 0 W/m2
01:03 37.9 °F 36.7 °F 30 in Calm     95% 0 in 0 W/m2
01:08 37.9 °F 36.7 °F 30 in WSW 0.9 mph 1 mph 95% 0 in 0 W/m2
01:13 37.8 °F 36.5 °F 30 in WSW 0.9 mph 3 mph 95% 0 in 0 W/m2
01:18 37.6 °F 36.3 °F 30 in WSW 2 mph 2 mph 95% 0 in 0 W/m2
01:23 37.6 °F 36.3 °F 30 in WSW 2 mph 3 mph 95% 0 in 0 W/m2
01:28 37.4 °F 36.1 °F 30 in SSW 0.9 mph 3 mph 95% 0 in 0 W/m2
01:33 37.2 °F 36 °F 30 in SSW 0.9 mph 1 mph 95% 0 in 0 W/m2
01:38 37 °F 35.8 °F 30 in Calm   3 mph 95% 0 in 0 W/m2
01:43 37 °F 35.8 °F 30 in SSW 0.9 mph 1 mph 95% 0 in 0 W/m2
01:48 37 °F 35.8 °F 30 in Calm   1 mph 95% 0 in 0 W/m2
01:53 36.9 °F 35.6 °F 30 in SSW 0.9 mph 1 mph 95% 0 in 0 W/m2
01:58 37 °F 35.8 °F 30 in SSW 2 mph 2 mph 95% 0.01 in 0 W/m2
02:03 36.9 °F 35.6 °F 30 in SSW 2 mph 2 mph 95% 0.01 in 0 W/m2
02:08 36.9 °F 35.6 °F 30 in SSW 0.9 mph 2 mph 95% 0.01 in 0 W/m2
02:13 36.7 °F 35.4 °F 30 in SSW 0.9 mph 2 mph 95% 0.01 in 0 W/m2
02:18 36.7 °F 35.4 °F 30 in SSW 0.9 mph 2 mph 95% 0.01 in 0 W/m2
02:23 36.5 °F 35.2 °F 30 in SSW 0.9 mph 2 mph 95% 0.01 in 0 W/m2
02:28 36.3 °F 35.1 °F 30 in WNW 2.9 mph 3 mph 95% 0.01 in 0 W/m2
02:33 36.7 °F 35.4 °F 30 in NNE 0.9 mph 4 mph 95% 0.01 in 0 W/m2
02:39 37 °F 35.4 °F 30 in WSW 0.9 mph 3 mph 94% 0.01 in 0 W/m2
02:44 37.6 °F 35.8 °F 30 in Calm   1 mph 93% 0.01 in 0 W/m2
02:49 37.6 °F 35.4 °F 30 in West 2 mph 4 mph 92% 0.01 in 0 W/m2
02:54 37.8 °F 35.4 °F 30 in West 2.9 mph 3 mph 91% 0.01 in 0 W/m2
02:59 37.8 °F 35.1 °F 30 in SW 2 mph 4 mph 90% 0 in 0 W/m2
03:04 37.8 °F 34.9 °F 30 in Calm   1 mph 89% 0 in 0 W/m2
03:09 37.9 °F 34.7 °F 30 in NW 0.9 mph 1 mph 88% 0 in 0 W/m2
03:14 37.9 °F 34.3 °F 30 in West 0.9 mph 3 mph 87% 0 in 0 W/m2
03:19 37.8 °F 34 °F 30 in West 4 mph 4 mph 86% 0 in 0 W/m2
03:24 37.9 °F 33.8 °F 30 in NNW 4 mph 6 mph 85% 0 in 0 W/m2
03:29 38.1 °F 33.4 °F 30 in West 2 mph 3 mph 83% 0 in 0 W/m2
03:34 38.1 °F 33.1 °F 30 in West 2.9 mph 6 mph 82% 0 in 0 W/m2
03:39 38.1 °F 33.1 °F 30 in West 0.9 mph 3 mph 82% 0 in 0 W/m2
03:44 38.1 °F 33.1 °F 30 in WNW 2.9 mph 5 mph 82% 0 in 0 W/m2
03:49 38.3 °F 32.7 °F 30 in WNW 2.9 mph 4 mph 80% 0 in 0 W/m2
03:54 38.3 °F 32.7 °F 30 in WSW 2.9 mph 3 mph 80% 0 in 0 W/m2
03:59 38.1 °F 32.5 °F 30 in NNW 2 mph 4 mph 80% 0 in 0 W/m2
04:04 38.1 °F 32.5 °F 30 in West 2.9 mph 3 mph 80% 0 in 0 W/m2
04:10 37.9 °F 32 °F 30.1 in West 2.9 mph 4 mph 79% 0 in 0 W/m2
04:15 37.9 °F 32 °F 30.1 in NW 0.9 mph 3 mph 79% 0 in 0 W/m2
04:20 37.9 °F 32.4 °F 30.1 in WNW 0.9 mph 4 mph 80% 0 in 0 W/m2
04:25 37.8 °F 32.2 °F 30.1 in West 0.9 mph 4 mph 80% 0 in 0 W/m2
04:30 37.8 °F 32.2 °F 30.1 in NNW 0.9 mph 3 mph 80% 0 in 0 W/m2
04:35 37.9 °F 31.6 °F 30.1 in WSW 2 mph 3 mph 78% 0 in 0 W/m2
04:40 37.9 °F 32 °F 30.1 in WNW 0.9 mph 4 mph 79% 0 in 0 W/m2
04:45 37.9 °F 31.6 °F 30.1 in NW 0.9 mph 7 mph 78% 0 in 0 W/m2
04:50 37.9 °F 31.6 °F 30.1 in West 2.9 mph 3 mph 78% 0 in 0 W/m2
04:55 37.8 °F 31.8 °F 30.1 in West 2 mph 3 mph 79% 0 in 0 W/m2
05:00 37.8 °F 31.8 °F 30.1 in WNW 0.9 mph 3 mph 79% 0 in 0 W/m2
05:05 37.6 °F 32 °F 30.1 in WNW 2.9 mph 5 mph 80% 0 in 0 W/m2
05:10 37.4 °F 31.5 °F 30.1 in NW 0.9 mph 2 mph 79% 0 in 0 W/m2
05:15 37.4 °F 31.5 °F 30.1 in WNW 2 mph 2 mph 79% 0 in 0 W/m2
05:20 37.2 °F 31.3 °F 30.1 in WNW 2 mph 4 mph 79% 0 in 0 W/m2
05:25 37.4 °F 31.5 °F 30.1 in WSW 2 mph 3 mph 79% 0 in 0 W/m2
05:30 37.2 °F 31.6 °F 30.1 in WSW 0.9 mph 3 mph 80% 0 in 0 W/m2
05:35 37.2 °F 31.3 °F 30.1 in NW 2 mph 3 mph 79% 0 in 0 W/m2
05:40 37.2 °F 31.3 °F 30.1 in West 2 mph 3 mph 79% 0 in 0 W/m2
05:45 37.2 °F 31.3 °F 30.1 in Calm   2 mph 79% 0 in 0 W/m2
05:50 37 °F 31.8 °F 30.1 in West 0.9 mph 1 mph 81% 0 in 0 W/m2
05:55 36.9 °F 31.8 °F 30.1 in South 0.9 mph 3 mph 82% 0 in 0 W/m2
06:00 36.7 °F 32 °F 30.1 in SSE 4 mph 4 mph 83% 0 in 5 W/m2
06:05 36.3 °F 32 °F 30.1 in SSE 0.9 mph 2 mph 84% 0 in 7 W/m2
06:10 36.3 °F 32.2 °F 30.1 in SW 0.9 mph 4 mph 85% 0 in 11 W/m2
06:15 36.1 °F 32.4 °F 30.1 in SW 0.9 mph 2 mph 86% 0 in 12 W/m2
06:20 36.1 °F 32 °F 30.1 in ENE 2 mph 4 mph 85% 0 in 14 W/m2
06:25 36.1 °F 31.5 °F 30.1 in SE 0.9 mph 2 mph 83% 0 in 16 W/m2
06:30 36.3 °F 32 °F 30.1 in ENE 0.9 mph 1 mph 84% 0 in 19 W/m2
06:35 36.3 °F 32 °F 30.1 in West 0.9 mph 2 mph 84% 0 in 21 W/m2
06:40 36.5 °F 31.8 °F 30.1 in Calm   1 mph 83% 0 in 23 W/m2
06:45 36.7 °F 32 °F 30.1 in Calm   1 mph 83% 0 in 25 W/m2
06:50 36.7 °F 32.4 °F 30.1 in SE 0.9 mph 1 mph 84% 0 in 25 W/m2
06:55 36.7 °F 32 °F 30.1 in East 0.9 mph 2 mph 83% 0 in 26 W/m2
07:00 36.9 °F 31.6 °F 30.1 in NNE 0.9 mph 4 mph 81% 0 in 28 W/m2
07:05 37.2 °F 31.6 °F 30.1 in East 0.9 mph 3 mph 80% 0 in 30 W/m2
07:10 37.4 °F 31.5 °F 30.1 in East 2 mph 6 mph 79% 0 in 30 W/m2
07:15 37.6 °F 31.6 °F 30.1 in NNW 0.9 mph 3 mph 79% 0 in 32 W/m2
07:20 37.8 °F 31.8 °F 30.1 in ESE 2 mph 6 mph 79% 0 in 33 W/m2
07:25 37.9 °F 31.6 °F 30.1 in NW 2 mph 4 mph 78% 0 in 33 W/m2
07:30 38.1 °F 31.8 °F 30.1 in NNW 4.9 mph 5 mph 78% 0 in 35 W/m2
07:35 38.5 °F 32.2 °F 30.1 in Calm   1 mph 78% 0 in 37 W/m2
07:40 38.7 °F 32.4 °F 30.1 in NE 2 mph 3 mph 78% 0 in 39 W/m2
07:45 38.8 °F 32.5 °F 30.1 in WSW 2.9 mph 4 mph 78% 0 in 39 W/m2
07:50 39 °F 32.4 °F 30.1 in NNW 0.9 mph 2 mph 77% 0 in 141 W/m2
07:55 39.4 °F 32.5 °F 30.1 in WNW 0.9 mph 4 mph 76% 0 in 253 W/m2
08:00 39.7 °F 33.1 °F 30.1 in NW 0.9 mph 3 mph 77% 0 in 265 W/m2
08:05 40.3 °F 33.3 °F 30.1 in Calm   3 mph 76% 0 in 279 W/m2
08:10 40.6 °F 33.6 °F 30.1 in NW 0.9 mph 3 mph 76% 0 in 295 W/m2
08:15 41 °F 33.6 °F 30.1 in NNW 0.9 mph 3 mph 75% 0 in 309 W/m2
08:20 41.4 °F 33.6 °F 30.1 in NW 0.9 mph 5 mph 74% 0 in 322 W/m2
08:25 41.5 °F 33.8 °F 30.1 in WNW 2 mph 4 mph 74% 0 in 336 W/m2
08:30 41.7 °F 34.7 °F 30.1 in Calm   2 mph 76% 0 in 352 W/m2
08:35 42.1 °F 34.3 °F 30.1 in NNW 0.9 mph 4 mph 74% 0 in 366 W/m2
08:40 42.4 °F 34 °F 30.1 in NNE 0.9 mph 2 mph 72% 0 in 380 W/m2
08:45 43 °F 34.5 °F 30.1 in NNE 0.9 mph 3 mph 72% 0 in 392 W/m2
08:50 43.3 °F 34.5 °F 30.1 in Calm   6 mph 71% 0 in 404 W/m2
08:55 43.7 °F 34.9 °F 30.1 in SSE 2 mph 4 mph 71% 0 in 420 W/m2
09:00 43.9 °F 34.3 °F 30.1 in East 2 mph 3 mph 69% 0 in 432 W/m2
09:05 44.2 °F 35.1 °F 30.1 in North 2 mph 3 mph 70% 0 in 446 W/m2
09:10 44.4 °F 34.9 °F 30.1 in ENE 0.9 mph 2 mph 69% 0 in 459 W/m2
09:15 44.8 °F 34.9 °F 30.1 in ESE 2.9 mph 8 mph 68% 0 in 471 W/m2
09:20 45 °F 35.1 °F 30.1 in ESE 2.9 mph 4 mph 68% 0 in 485 W/m2
09:25 45.1 °F 35.2 °F 30.1 in ENE 2.9 mph 8 mph 68% 0 in 497 W/m2
09:30 45.5 °F 36 °F 30.1 in NNW 4 mph 5 mph 69% 0 in 510 W/m2
09:36 45.9 °F 36 °F 30.1 in NNE 2.9 mph 5 mph 68% 0 in 524 W/m2
09:41 46.2 °F 36 °F 30.1 in ENE 2.9 mph 4 mph 67% 0 in 533 W/m2
09:46 46.2 °F 36.3 °F 30.1 in ENE 0.9 mph 4 mph 68% 0 in 547 W/m2
09:51 46.4 °F 36.5 °F 30.1 in ENE 4 mph 6 mph 68% 0 in 559 W/m2
09:56 46.8 °F 36.7 °F 30.1 in NE 2 mph 3 mph 68% 0 in 571 W/m2
10:01 46.9 °F 36.9 °F 30.1 in ESE 0.9 mph 2 mph 68% 0 in 584 W/m2
10:06 47.5 °F 37 °F 30.1 in NE 0.9 mph 3 mph 67% 0 in 594 W/m2
10:11 47.7 °F 37.2 °F 30.1 in ENE 4 mph 5 mph 67% 0 in 63 W/m2
10:16 47.8 °F 37 °F 30.1 in East 0.9 mph 2 mph 66% 0 in 118 W/m2
10:21 48.2 °F 37.8 °F 30.1 in NE 2.9 mph 6 mph 67% 0 in 613 W/m2
10:26 48.6 °F 37.8 °F 30.1 in ENE 4 mph 4 mph 66% 0 in 640 W/m2
10:31 48.6 °F 37.4 °F 30.1 in NE 2.9 mph 4 mph 65% 0 in 656 W/m2
10:36 48.2 °F 37.4 °F 30.1 in North 2 mph 2 mph 66% 0 in 663 W/m2
10:41 48.6 °F 37.4 °F 30.1 in ENE 4.9 mph 6 mph 65% 0 in 686 W/m2
10:46 48.9 °F 37.8 °F 30.1 in East 2.9 mph 4 mph 65% 0 in 712 W/m2
10:51 49.3 °F 36.9 °F 30.1 in SW 0.9 mph 2 mph 62% 0 in 754 W/m2
10:56 49.3 °F 37.6 °F 30.1 in ENE 4 mph 6 mph 64% 0 in 770 W/m2
11:01 49.5 °F 37 °F 30.1 in NE 4 mph 8 mph 62% 0 in 768 W/m2
11:06 49.8 °F 37.4 °F 30.1 in East 2 mph 3 mph 62% 0 in 172 W/m2
11:11 49.8 °F 36.9 °F 30.1 in Calm   7 mph 61% 0 in 279 W/m2
11:16 49.8 °F 36.5 °F 30.1 in NW 0.9 mph 2 mph 60% 0 in 209 W/m2
11:21 49.6 °F 37.2 °F 30.1 in NNE 2 mph 4 mph 62% 0 in 858 W/m2
11:26 50 °F 36.7 °F 30.1 in East 2 mph 3 mph 60% 0 in 914 W/m2
11:31 51.1 °F 37.2 °F 30.1 in East 0.9 mph 6 mph 59% 0 in 990 W/m2
11:36 51.6 °F 36 °F 30.1 in North 4.9 mph 8 mph 55% 0 in 944 W/m2
11:41 51.6 °F 36 °F 30.1 in ENE 0.9 mph 4 mph 55% 0 in 817 W/m2
11:46 51.8 °F 35.2 °F 30.1 in SE 2 mph 4 mph 53% 0 in 877 W/m2
11:51 52.2 °F 36 °F 30.1 in NE 6 mph 9 mph 54% 0 in 928 W/m2
11:56 52.2 °F 35.6 °F 30.1 in ENE 0.9 mph 3 mph 53% 0 in 269 W/m2
12:01 52 °F 34.9 °F 30.1 in North 2.9 mph 4 mph 52% 0 in 854 W/m2
12:06 51.6 °F 35.1 °F 30.1 in NE 2.9 mph 3 mph 53% 0 in 833 W/m2
12:11 52 °F 36.9 °F 30.1 in East 4.9 mph 5 mph 56% 0 in 838 W/m2
12:16 52.5 °F 36.3 °F 30.1 in East 4 mph 4 mph 54% 0 in 861 W/m2
12:21 52.7 °F 35.1 °F 30.1 in Calm   6 mph 51% 0 in 856 W/m2
12:26 52.5 °F 36.3 °F 30.1 in ENE 2 mph 6 mph 54% 0 in 863 W/m2
12:31 52.9 °F 37.2 °F 30.1 in ESE 2 mph 5 mph 55% 0 in 846 W/m2
12:36 52.9 °F 36.1 °F 30.1 in East 4 mph 5 mph 53% 0 in 891 W/m2
12:41 52.7 °F 35.6 °F 30.1 in ESE 2 mph 2 mph 52% 0 in 272 W/m2
12:46 52.7 °F 36.5 °F 30.1 in West 2 mph 4 mph 54% 0 in 863 W/m2
12:51 53.1 °F 36.3 °F 30.1 in ENE 4.9 mph 8 mph 53% 0 in 714 W/m2
12:56 53.1 °F 36 °F 30.1 in East 8.1 mph 8 mph 52% 0 in 846 W/m2
13:01 53.2 °F 35.1 °F 30.1 in NE 2 mph 3 mph 50% 0 in 858 W/m2
13:06 53.2 °F 35.6 °F 30 in NW 2 mph 5 mph 51% 0 in 830 W/m2
13:11 53.6 °F 37.4 °F 30 in ESE 4 mph 5 mph 54% 0 in 840 W/m2
13:16 54 °F 36.7 °F 30 in ENE 2.9 mph 4 mph 52% 0 in 844 W/m2
13:21 54.1 °F 36.3 °F 30 in ENE 2.9 mph 3 mph 51% 0 in 814 W/m2
13:27 54.5 °F 36.3 °F 30 in Calm   3 mph 50% 0 in 782 W/m2
13:32 54.7 °F 36.3 °F 30 in SE 4 mph 4 mph 50% 0 in 802 W/m2
13:37 54.5 °F 36.3 °F 30 in North 2.9 mph 3 mph 50% 0 in 828 W/m2
13:42 54.7 °F 36.3 °F 30 in ENE 2.9 mph 8 mph 50% 0 in 821 W/m2
13:47 54.3 °F 36.5 °F 30 in East 0.9 mph 3 mph 51% 0 in 860 W/m2
13:52 54.3 °F 37 °F 30 in SE 2.9 mph 6 mph 52% 0 in 886 W/m2
13:57 54.5 °F 36.7 °F 30 in ENE 2.9 mph 6 mph 51% 0 in 879 W/m2
14:02 54.5 °F 35.8 °F 30 in ESE 2 mph 4 mph 49% 0 in 838 W/m2
14:07 54.7 °F 37.9 °F 30 in Calm   6 mph 53% 0 in 872 W/m2
14:12 55 °F 36.7 °F 30 in NNE 4 mph 5 mph 50% 0 in 766 W/m2
14:17 55.2 °F 36.9 °F 30 in NE 2 mph 3 mph 50% 0 in 898 W/m2
14:22 55.2 °F 36.3 °F 30 in East 2.9 mph 4 mph 49% 0 in 826 W/m2
14:27 55.4 °F 35.4 °F 30 in North 2.9 mph 8 mph 47% 0 in 856 W/m2
14:32 55.4 °F 36 °F 30 in WNW 2 mph 4 mph 48% 0 in 566 W/m2
14:37 55 °F 35.8 °F 30 in East 4 mph 4 mph 48% 0 in 684 W/m2
14:42 55 °F 35.2 °F 30 in NE 2 mph 3 mph 47% 0 in 821 W/m2
14:47 55.6 °F 36.1 °F 30 in WNW 2 mph 4 mph 48% 0 in 805 W/m2
14:52 55 °F 35.8 °F 30 in Calm   3 mph 48% 0 in 800 W/m2
14:57 55 °F 36.1 °F 30 in NNW 2.9 mph 6 mph 49% 0 in 754 W/m2
15:02 55.6 °F 36.7 °F 30 in ENE 0.9 mph 2 mph 49% 0 in 786 W/m2
15:07 55.9 °F 36.5 °F 30 in ESE 2 mph 8 mph 48% 0 in 742 W/m2
15:12 56.5 °F 38.1 °F 30 in ENE 2.9 mph 3 mph 50% 0 in 747 W/m2
15:18 56.5 °F 37 °F 30 in NNW 2 mph 2 mph 48% 0 in 636 W/m2
15:23 56.1 °F 37.2 °F 30 in North 0.9 mph 2 mph 49% 0 in 601 W/m2
15:28 56.1 °F 36.1 °F 30 in North 0.9 mph 4 mph 47% 0 in 446 W/m2
15:33 55.8 °F 36.3 °F 30 in East 2.9 mph 4 mph 48% 0 in 587 W/m2
15:38 55.8 °F 37.9 °F 30 in NNW 0.9 mph 2 mph 51% 0 in 508 W/m2
15:43 55.9 °F 37 °F 30 in NNE 6 mph 6 mph 49% 0 in 557 W/m2
15:48 55.8 °F 36.3 °F 30 in NNW 4 mph 8 mph 48% 0 in 452 W/m2
15:53 55.8 °F 36.9 °F 30 in ENE 4.9 mph 7 mph 49% 0 in 392 W/m2
15:58 55.8 °F 36.9 °F 30 in ENE 2 mph 3 mph 49% 0 in 469 W/m2
16:04 55.9 °F 37.6 °F 30 in NNW 2.9 mph 6 mph 50% 0 in 348 W/m2
16:09 55.9 °F 36.5 °F 30 in WSW 0.9 mph 3 mph 48% 0 in 599 W/m2
16:14 56.1 °F 36.1 °F 30 in ESE 2 mph 6 mph 47% 0 in 362 W/m2
16:19 55.9 °F 36.5 °F 30 in Calm   3 mph 48% 0 in 311 W/m2
16:24 55.9 °F 37 °F 30 in NNW 2.9 mph 4 mph 49% 0 in 308 W/m2
16:29 55.9 °F 36.5 °F 30 in NNW 2.9 mph 5 mph 48% 0 in 295 W/m2
16:34 55.9 °F 36.5 °F 30 in East 2.9 mph 8 mph 48% 0 in 299 W/m2
16:39 55.8 °F 36.9 °F 30 in NE 2 mph 4 mph 49% 0 in 297 W/m2
16:44 55.6 °F 36.1 °F 30 in NW 0.9 mph 7 mph 48% 0 in 285 W/m2
16:49 55.6 °F 36.1 °F 30 in ENE 0.9 mph 1 mph 48% 0 in 274 W/m2
16:54 55.6 °F 37.2 °F 30 in East 0.9 mph 4 mph 50% 0 in 276 W/m2
16:59 55.6 °F 36.7 °F 30 in ENE 0.9 mph 4 mph 49% 0 in 279 W/m2
17:04 55.6 °F 37.2 °F 30 in East 2 mph 4 mph 50% 0 in 341 W/m2
17:09 55.6 °F 38.7 °F 30 in ENE 2 mph 2 mph 53% 0 in 369 W/m2
17:14 55.9 °F 38.1 °F 30 in NNW 2 mph 3 mph 51% 0 in 397 W/m2
17:19 56.1 °F 36.7 °F 30 in SSE 0.9 mph 7 mph 48% 0 in 336 W/m2
17:24 56.1 °F 38.3 °F 30 in East 0.9 mph 2 mph 51% 0 in 548 W/m2
17:29 56.5 °F 36.5 °F 30 in NE 2 mph 6 mph 47% 0 in 596 W/m2
17:34 57 °F 39 °F 30 in East 2 mph 4 mph 51% 0 in 545 W/m2
17:39 57.2 °F 37.2 °F 30 in Calm   3 mph 47% 0 in 524 W/m2
17:44 57.2 °F 36.7 °F 30 in ENE 2 mph 4 mph 46% 0 in 459 W/m2
17:49 57.4 °F 37.4 °F 30 in NNW 0.9 mph 3 mph 47% 0 in 353 W/m2
17:54 57.6 °F 37.9 °F 30 in NW 4 mph 4 mph 48% 0 in 381 W/m2
17:59 57.6 °F 36.9 °F 30 in East 2.9 mph 5 mph 46% 0 in 246 W/m2
18:04 57.4 °F 36.7 °F 30 in NNW 6 mph 8 mph 46% 0 in 190 W/m2
18:09 56.8 °F 36.9 °F 30 in West 2 mph 3 mph 47% 0 in 195 W/m2
18:14 56.5 °F 36 °F 30 in ENE 2 mph 4 mph 46% 0 in 181 W/m2
18:19 55.9 °F 36.5 °F 30 in Calm   4 mph 48% 0 in 183 W/m2
18:24 55.9 °F 36 °F 30 in Calm   3 mph 47% 0 in 188 W/m2
18:29 55.8 °F 34.7 °F 30 in Calm   4 mph 45% 0 in 207 W/m2
18:34 55.6 °F 35.1 °F 30 in North 0.9 mph 2 mph 46% 0 in 183 W/m2
18:39 55.6 °F 35.1 °F 30 in NNW 0.9 mph 3 mph 46% 0 in 181 W/m2
18:44 55.6 °F 36.1 °F 30 in NNE 0.9 mph 4 mph 48% 0 in 162 W/m2
18:49 55.6 °F 36.1 °F 30 in ESE 0.9 mph 7 mph 48% 0 in 162 W/m2
18:54 55.6 °F 35.6 °F 30 in SE 2.9 mph 4 mph 47% 0 in 195 W/m2
18:59 55.6 °F 35.6 °F 30 in ESE 0.9 mph 4 mph 47% 0 in 172 W/m2
19:04 55.6 °F 35.1 °F 29.9 in ENE 4 mph 4 mph 46% 0 in 156 W/m2
19:09 55.4 °F 36.5 °F 29.9 in East 2 mph 3 mph 49% 0 in 139 W/m2
19:14 55.2 °F 34.9 °F 29.9 in NE 0.9 mph 6 mph 46% 0 in 121 W/m2
19:19 55 °F 34.7 °F 29.9 in NE 0.9 mph 2 mph 46% 0 in 114 W/m2
19:24 54.9 °F 34.5 °F 29.9 in ESE 2.9 mph 6 mph 46% 0 in 120 W/m2
19:29 54.9 °F 35.6 °F 29.9 in SE 0.9 mph 2 mph 48% 0 in 97 W/m2
19:34 54.7 °F 35.4 °F 29.9 in ESE 0.9 mph 3 mph 48% 0 in 88 W/m2
19:39 54.7 °F 35.4 °F 29.9 in Calm   2 mph 48% 0 in 83 W/m2
19:44 54.7 °F 37.4 °F 29.9 in SSE 0.9 mph 2 mph 52% 0 in 77 W/m2
19:49 54.3 °F 36.1 °F 29.9 in NE 2 mph 5 mph 50% 0 in 69 W/m2
19:54 54.1 °F 36.3 °F 29.9 in NE 0.9 mph 1 mph 51% 0 in 62 W/m2
19:59 54 °F 36.3 °F 29.9 in East 2 mph 5 mph 51% 0 in 58 W/m2
20:04 54 °F 36.3 °F 29.9 in SE 0.9 mph 1 mph 51% 0 in 53 W/m2
20:09 53.8 °F 37.6 °F 29.9 in Calm   1 mph 54% 0 in 46 W/m2
20:14 53.4 °F 36.7 °F 29.9 in ESE 0.9 mph 6 mph 53% 0 in 40 W/m2
20:19 53.2 °F 35.6 °F 29.9 in East 0.9 mph 3 mph 51% 0 in 35 W/m2
20:24 53.1 °F 39.2 °F 29.9 in East 0.9 mph 6 mph 59% 0 in 32 W/m2
20:29 52.7 °F 37 °F 29.9 in ESE 2 mph 2 mph 55% 0 in 28 W/m2
20:34 52.5 °F 38.1 °F 29.9 in ESE 0.9 mph 1 mph 58% 0 in 28 W/m2
20:39 52.3 °F 39.7 °F 29.9 in Calm   1 mph 62% 0 in 25 W/m2
20:44 52 °F 38.5 °F 29.9 in ESE 2 mph 2 mph 60% 0 in 19 W/m2
20:49 51.6 °F 39 °F 29.9 in ESE 0.9 mph 1 mph 62% 0 in 12 W/m2
20:54 51.4 °F 39.7 °F 29.9 in Calm     64% 0 in 9 W/m2
20:59 51.1 °F 39.7 °F 29.9 in Calm     65% 0 in 5 W/m2
21:04 50.7 °F 39.4 °F 29.9 in Calm     65% 0 in 0 W/m2
21:09 50.4 °F 39 °F 29.9 in Calm   1 mph 65% 0 in 0 W/m2
21:14 50 °F 39 °F 29.9 in Calm   1 mph 66% 0 in 0 W/m2
21:19 49.8 °F 39.7 °F 29.9 in Calm     68% 0 in 0 W/m2
21:24 49.5 °F 39.7 °F 29.9 in SE 0.9 mph 2 mph 69% 0 in 0 W/m2
21:29 49.1 °F 39.7 °F 29.9 in SE 0.9 mph 1 mph 70% 0 in 0 W/m2
21:34 48.7 °F 39.7 °F 29.9 in Calm     71% 0 in 0 W/m2
21:39 48.6 °F 39.6 °F 29.9 in Calm     71% 0 in 0 W/m2
21:45 48.2 °F 38.8 °F 29.9 in Calm     70% 0 in 0 W/m2
21:50 47.8 °F 39.2 °F 29.9 in Calm     72% 0 in 0 W/m2
21:55 47.7 °F 39 °F 29.9 in Calm     72% 0 in 0 W/m2
22:00 47.1 °F 38.5 °F 29.9 in Calm     72% 0 in 0 W/m2
22:05 46.8 °F 38.3 °F 29.9 in Calm     72% 0 in 0 W/m2
22:10 46.6 °F 38.5 °F 29.9 in Calm     73% 0 in 0 W/m2
22:15 46.2 °F 38.5 °F 29.9 in Calm     74% 0 in 0 W/m2
22:20 46 °F 38.3 °F 29.9 in Calm     74% 0 in 0 W/m2
22:25 46 °F 38.3 °F 29.9 in Calm   2 mph 74% 0 in 0 W/m2
22:30 46 °F 38.3 °F 29.9 in Calm   1 mph 74% 0 in 0 W/m2
22:35 45.9 °F 38.1 °F 29.9 in SE 0.9 mph 1 mph 74% 0 in 0 W/m2
22:40 45.9 °F 38.3 °F 29.9 in Calm   1 mph 75% 0 in 0 W/m2
22:45 45.7 °F 38.5 °F 29.9 in Calm     76% 0 in 0 W/m2
22:50 45.3 °F 38.1 °F 29.9 in Calm   1 mph 76% 0 in 0 W/m2
22:55 45.1 °F 37.9 °F 29.9 in Calm     76% 0 in 0 W/m2
23:00 45 °F 38.1 °F 29.9 in Calm     77% 0 in 0 W/m2
23:05 44.8 °F 37.9 °F 29.9 in Calm     77% 0 in 0 W/m2
23:10 44.8 °F 37.9 °F 29.9 in Calm   1 mph 77% 0 in 0 W/m2
23:15 44.8 °F 37.9 °F 29.9 in Calm     77% 0 in 0 W/m2
23:20 44.4 °F 37.9 °F 29.9 in Calm   1 mph 78% 0 in 0 W/m2
23:25 44.4 °F 37.9 °F 29.9 in Calm     78% 0 in 0 W/m2
23:30 44.2 °F 38.1 °F 29.9 in Calm   1 mph 79% 0 in 0 W/m2
23:35 44.2 °F 38.1 °F 29.9 in Calm     79% 0 in 0 W/m2
23:40 44.1 °F 38.3 °F 29.9 in Calm     80% 0 in 0 W/m2
23:45 43.9 °F 38.1 °F 29.9 in Calm     80% 0 in 0 W/m2
23:50 43.5 °F 37.8 °F 29.9 in Calm     80% 0 in 0 W/m2
23:55 43.3 °F 37.6 °F 29.9 in Calm     80% 0 in 0 W/m2
Juneau County Weather
Compliments of Weather Underground - 4 mb